Location: Collombey
(46.2701°N, 6.9484°E)
Time: 15:24:13
(UTC+00:00)

Daily predictions for brighter satellites

Satellite Brightness Start Highest point End
(mag) Time Altitude Azimuth Time Altitude Azimuth Time Altitude Azimuth
CZ-4C R/B 3.3 16:09:06 10° NNW 16:15:46 45° NE 16:23:36 10° ESE
Cosmos 468 Rocket 4.0 16:12:38 10° SSW 16:17:46 76° ESE 16:23:00 10° NNE
Cosmos 1980 Rocket 2.5 16:14:17 10° NNW 16:19:41 43° NE 16:25:02 10° SE
NOAA 12 4.1 16:15:53 10° SSE 16:21:09 67° ENE 16:26:26 10° N
ATLAS CENTAUR R/B 3.3 16:12:34 10° SW 16:24:04 79° SE 16:28:36 10° NE
Meteor PRIRODA 3.5 16:21:29 10° SSE 16:25:05 74° ENE 16:28:43 10° N
COSMO-SKYMED 1 4.4 16:23:50 10° ENE 16:25:45 13° E 16:27:40 10° ESE
Cosmos 1898 Rocket 3.5 16:20:31 10° NNW 16:25:49 87° ENE 16:31:01 10° SSE
Cosmos 2369 3.8 16:20:52 10° NNW 16:26:33 59° ENE 16:32:11 10° SE
Cosmos 1933 3.5 16:23:13 10° S 16:27:08 52° E 16:31:04 10° NNE
USA 305 4.0 16:25:12 10° WNW 16:28:55 28° N 16:32:38 10° ENE
Cosmos 1633 Rocket 4.2 16:26:13 10° NNE 16:29:36 21° ENE 16:32:58 10° ESE
Cosmos 2034 Rocket 4.1 16:23:33 10° S 16:29:42 88° W 16:35:55 10° N
FengYun 1-2 T 4.2 16:24:12 10° SSE 16:29:43 66° ENE 16:35:13 10° N
CZ-4B R/B 2.7 16:26:17 10° SSE 16:30:17 81° ENE 16:34:07 10° NNW
Cosmos 1812 4.0 16:27:55 10° SE 16:30:53 22° E 16:33:52 10° NE
NOSS 2-2 (C) 4.4 16:26:15 10° NNW 16:31:18 64° NE 16:38:24 10° SE
CORIOLIS 4.4 16:26:15 10° SE 16:31:26 50° ENE 16:36:41 10° N
Cosmos 1818 4.4 16:27:20 10° NNW 16:32:12 31° NE 16:37:01 10° ESE
SL-16 R/B 3.5 16:29:27 10° N 16:33:34 20° NE 16:37:40 10° E
AQUARIUS 4.4 16:31:39 10° SE 16:35:57 48° ENE 16:40:18 10° N
Cosmos 1151 Rocket 4.1 16:32:34 10° SE 16:36:06 25° E 16:39:39 10° NNE
Cosmos 2082 Rocket 2.6 16:31:28 10° S 16:36:53 47° ESE 16:42:16 10° NE
USA 267 3.3 16:32:25 10° NE 16:38:59 76° SE 16:45:31 10° SW
SMAP 3.0 16:36:10 10° SSE 16:40:46 64° ENE 16:45:24 10° N
Meteor 2-14 Rocket 4.5 16:36:33 10° N 16:42:36 61° ENE 16:48:35 10° SSE
Cosmos 1743 Rocket 4.0 16:41:51 10° NNW 16:46:08 64° W 16:50:24 10° S
ARGOS 4.0 16:43:02 10° ESE 16:47:32 28° ENE 16:52:02 10° N
Cosmos 1763 Rocket 4.0 16:42:35 10° SW 16:47:34 58° WNW 16:52:39 10° NNE
Meteor 1-25 Rocket 4.4 16:42:15 10° NNW 16:47:50 81° W 16:53:27 10° S
Cosmos 1634 Rocket 4.1 16:42:16 10° S 16:48:30 64° E 16:54:45 10° NNE
Cosmos 2278 3.8 16:44:14 10° NNW 16:49:49 52° ENE 16:55:21 10° SE
Cosmos 2026 Rocket 3.9 16:44:32 10° N 16:50:42 75° E 16:56:44 10° SSE
CZ-4B DEB 4.2 16:45:20 10° SSE 16:50:46 62° ENE 16:56:11 10° N
Cosmos 1602 3.8 16:47:16 10° N 16:51:08 85° W 16:55:00 10° S
Cosmos 44 Rocket 3.8 16:49:50 10° NNW 16:54:26 37° NE 16:58:53 10° ESE
Cosmos 1833 Rocket 3.1 16:48:59 10° SW 16:54:33 64° WNW 17:00:11 10° NNE
Cosmos 841 Rocket 3.4 16:50:43 10° SSW 16:55:51 76° ESE 17:01:00 10° NNE
CZ-2C R/B 3.8 16:51:06 10° S 16:55:52 53° W 17:00:32 10° NNW
Cosmos 1666 Rocket 3.8 16:53:11 10° N 16:57:29 46° ENE 17:01:43 10° SSE
Okean O Rocket 2.5 16:53:48 10° ESE 16:57:32 27° ENE 17:01:17 10° N
MOS 1-B Rocket 4.4 16:53:00 10° NNE 16:58:47 47° E 17:05:22 10° S
Cosmos 1328 Rocket 4.3 16:55:48 10° SSE 16:59:43 31° E 17:03:23 11° NNE
H-2A R/B 2.1 16:56:01 10° SE 17:01:00 53° ENE 17:05:52 10° N
USA 306 3.9 16:57:35 10° NW 17:01:24 31° N 17:03:36 19° ENE
Cosmos 1939 Rocket 3.2 16:58:11 10° S 17:02:16 69° WSW 17:06:20 10° NNW
Cosmos 1937 Rocket 4.1 16:57:17 10° NNW 17:02:34 64° WSW 17:07:48 10° S
COSMOS 2406 3.5 16:57:57 10° SW 17:03:42 70° WNW 17:09:26 10° NNE
ISS -3.4 17:01:35 10° WNW 17:04:59 67° SSW 17:08:20 10° SE
ATLAS 2AS CENTAUR R/B 4.4 17:00:43 10° NW 17:06:08 20° N 17:10:37 12° NE
Cosmos 372 Rocket 4.0 17:02:09 10° NNW 17:07:26 88° WSW 17:12:40 10° SSE
CZ-2C R/B 3.1 17:03:32 10° NNE 17:08:21 37° E 17:13:07 10° SSE
Meteor 2-21 Rocket 4.4 17:02:21 10° N 17:08:28 72° E 17:14:30 10° SSE
Cosmos 1125 Rocket 4.2 17:04:06 10° N 17:08:45 31° ENE 17:13:24 10° ESE
Cosmos 1500 3.3 17:07:18 10° NNW 17:11:02 76° W 17:14:44 10° S
USA 234 3.2 17:06:06 10° ESE 17:12:40 86° NE 17:19:13 10° NW
SKYMED 2 4.1 17:11:18 17° NE 17:14:15 37° E 17:18:16 10° SSE
Cosmos 1782 3.2 17:12:13 10° SSW 17:16:11 65° W 17:20:10 10° N
CZ-2D R/B 3.1 17:13:50 10° SSE 17:17:39 83° ENE 17:21:30 10° N
Sich 1 3.7 17:14:24 10° NNW 17:18:38 58° W 17:22:52 10° S
Cosmos 1655 Rocket 4.3 17:13:12 10° N 17:19:17 43° ENE 17:25:17 10° SE
CZ-4B R/B 3.1 17:14:41 10° SSE 17:19:59 59° ENE 17:25:14 10° N
USA 307 3.8 17:17:14 10° NW 17:21:07 33° NNE 17:22:25 27° NE
Meteor 2-6 Rocket 4.3 17:16:46 10° S 17:22:21 55° E 17:27:47 10° NNE
APEX 4.4 17:20:40 10° SSE 17:23:25 23° ESE 17:23:25 23° ESE
SJ-11-01 4.4 17:19:43 10° SE 17:24:19 50° ENE 17:28:54 10° N
ATLAS 5 CENTAUR R/B 2.4 17:18:48 10° NW 17:25:36 39° NNE 17:26:27 33° ENE
PAYLOAD B 4.3 17:20:34 10° SSE 17:26:11 88° WSW 17:31:49 10° NNW
deb Chang Zheng 4 3.5 17:25:51 10° SSE 17:30:07 63° ENE 17:34:23 10° N
Cosmos 2360 Rocket 3.2 17:32:55 10° N 17:37:21 26° NE 17:37:21 26° NE
Lacrosse 5 rocket 1.2 17:34:15 10° NW 17:38:10 66° NE 17:39:13 45° E
Cosmos 1666 3.0 17:36:26 10° NNW 17:40:07 63° W 17:43:47 10° S
USA 308 3.5 17:39:51 10° NW 17:43:51 38° NNE 17:44:08 38° NNE
Cosmos 1515 Rocket 3.7 17:40:00 10° SSE 17:44:16 49° E 17:44:48 47° ENE
Meteor 1-10 Rocket 4.1 17:46:06 10° S 17:51:50 70° E 17:56:15 17° NNE
COSMOS 2455 3.7 17:46:26 10° WSW 17:52:14 47° NW 17:56:39 17° NNE
Meteor 1-11 Rocket 3.7 17:47:21 10° N 17:52:56 62° ENE 17:58:38 10° SSE
Cosmos 921 Rocket 2.8 17:53:03 10° SSW 17:57:15 84° ESE 17:57:55 62° NNE
Cosmos 1570 Rocket 4.4 17:52:56 10° SW 17:58:07 61° WNW 18:01:47 19° N
Cosmos 2322 Rocket 2.3 17:53:40 10° NNW 17:59:16 54° ENE 18:00:16 48° E
SL-08 RB Rocket 3.6 17:54:47 10° SSE 17:59:24 76° ENE 18:04:01 10° N
COSMO-SKYMED 1 2.8 17:59:54 25° N 18:02:24 70° WNW 18:06:43 10° SSW
Cosmos 2298 Rocket 3.9 17:57:12 10° NNW 18:02:34 89° WSW 18:07:54 10° SSE
Cosmos 1980 Rocket 3.9 17:58:33 10° NW 18:03:33 33° WSW 18:08:30 10° SSW
CZ-4C R/B 3.5 17:57:31 10° NW 18:04:45 60° WSW 18:13:03 10° SSE
Cosmos 1633 Rocket 4.4 18:03:27 10° NNW 18:07:32 39° W 18:11:37 10° SSW
Meteor 2-15 Rocket 4.3 18:02:44 10° S 18:08:51 80° E 18:14:07 15° NNE
USA 305 3.5 18:05:17 10° NW 18:08:38 44° NNW 18:08:38 44° NNW
Feng Yun 1-1 Rocket 4.2 18:04:41 10° SSE 18:10:37 83° ENE 18:16:30 10° NNW
DMSP B5D2-2 4.4 18:14:59 47° SSE 18:14:59 47° SSE 18:18:59 10° S
CZ-2C R/B 3.5 18:12:06 10° SSW 18:14:25 16° S 18:14:25 16° S
Cosmos 1818 4.1 18:10:43 10° NW 18:16:06 58° WSW 18:20:30 15° SSE
Aureole 3 Rocket 4.0 18:13:48 10° S 18:26:47 - N 18:16:26 40° SSE
SL-16 R/B 2.1 18:12:44 10° NNW 18:18:27 86° WSW 18:21:04 34° SSE
Cosmos 2266 Rocket 4.1 18:12:03 10° N 18:18:28 78° W 18:24:52 10° S
Cosmos 836 Rocket 4.4 18:14:26 10° SSW 18:19:25 70° SE 18:19:25 70° SE
Cosmos 2082 Rocket 3.7 18:16:04 10° WSW 18:21:08 32° NW 18:24:53 16° N
USA 267 3.8 18:19:25 34° NNE 18:21:48 48° NNW 18:28:00 10° W
NOAA 15 4.5 18:18:40 10° SSE 18:23:58 89° WSW 18:29:17 10° NNW
Landsat 5 4.0 18:25:10 54° W 18:25:10 54° W 18:28:48 10° SSW
ARGOS 4.1 18:22:21 10° S 18:27:33 47° W 18:32:47 10° NNW
GEOS 3 Rocket 3.8 18:30:35 59° N 18:30:35 59° N 18:34:57 10° NW
Okean O Rocket 3.2 18:29:41 10° SSW 18:33:46 35° W 18:37:51 10° NNW
Cosmos 2333 Rocket 3.8 18:28:48 10° NNW 18:31:06 22° N 18:31:06 22° N
Cosmos 1867 4.1 18:34:42 10° SSW 18:38:42 49° SSW 18:38:42 49° SSW
H-2A R/B 4.4 18:36:50 10° SW 18:40:42 21° W 18:44:32 10° NW
ISS -0.5 18:40:08 10° WSW 18:41:13 11° SW 18:41:23 11° SW
CZ-2C R/B 4.2 18:44:30 12° N 18:48:33 32° WNW 18:53:04 10° SW
Cosmos 2219 Rocket 4.2 18:45:07 10° NNW 18:46:30 17° N 18:46:30 17° N
ATLAS CENTAUR R/B 4.3 18:50:42 10° WNW 18:54:28 20° NW 18:54:28 20° NW
Meteor 1-27 Rocket 4.2 18:51:24 10° SSW 18:56:41 56° W 18:56:41 56° W
ATLAS 2AS CENTAUR R/B 4.1 18:53:24 10° NNW 18:58:02 26° N 18:58:02 26° N
Lacrosse 5 rocket 4.3 19:13:54 10° WNW 19:14:52 14° W 19:14:52 14° W
Cosmos 2360 Rocket 3.8 19:16:29 10° NNW 19:19:09 28° NW 19:19:09 28° NW
Cosmos 2322 Rocket 4.1 19:38:19 10° NW 19:42:10 25° W 19:42:10 25° W
